Wetterdaten: Mittwoch, 01.09.2010
Datum Zeit Temp. A. Feuchte A. Luftdruck Regen Wind Richtung Richtung Sonnenschein UV Solar Windben
01.09.2010 00:00 13,2 C 88 % 1021,2 hPa 0,0 mm 0,0 km/h (0 Bft) W-NW 292 0 min 0 UV-I 0 W/m 1,6 km/h (1 Bft)
01.09.2010 00:10 13,1 C 88 % 1021,1 hPa 0,0 mm 0,0 km/h (0 Bft) W-NW 292 0 min 0 UV-I 0 W/m 1,6 km/h (1 Bft)
01.09.2010 00:20 13,0 C 88 % 1021,1 hPa 0,0 mm 0,0 km/h (0 Bft) W-NW 292 0 min 0 UV-I 0 W/m 3,2 km/h (1 Bft)
01.09.2010 00:30 12,9 C 89 % 1021,1 hPa 0,0 mm 0,0 km/h (0 Bft) N 0 0 min 0 UV-I 0 W/m 0,0 km/h (0 Bft)
01.09.2010 00:40 12,9 C 89 % 1021,0 hPa 0,0 mm 0,0 km/h (0 Bft) W-NW 292 0 min 0 UV-I 0 W/m 1,6 km/h (1 Bft)
01.09.2010 00:50 12,8 C 89 % 1021,0 hPa 0,0 mm 0,0 km/h (0 Bft) W-NW 292 0 min 0 UV-I 0 W/m 1,6 km/h (1 Bft)
01.09.2010 01:00 12,8 C 89 % 1020,9 hPa 0,0 mm 0,0 km/h (0 Bft) W-NW 292 0 min 0 UV-I 0 W/m 1,6 km/h (1 Bft)
01.09.2010 01:10 12,8 C 89 % 1020,8 hPa 0,0 mm 0,0 km/h (0 Bft) W-NW 292 0 min 0 UV-I 0 W/m 1,6 km/h (1 Bft)
01.09.2010 01:20 12,7 C 89 % 1020,9 hPa 0,0 mm 0,0 km/h (0 Bft) W-NW 292 0 min 0 UV-I 0 W/m 3,2 km/h (1 Bft)
01.09.2010 01:30 12,7 C 89 % 1020,8 hPa 0,0 mm 0,0 km/h (0 Bft) W-NW 292 0 min 0 UV-I 0 W/m 3,2 km/h (1 Bft)
01.09.2010 01:40 12,6 C 89 % 1020,8 hPa 0,0 mm 0,0 km/h (0 Bft) N 0 0 min 0 UV-I 0 W/m 0,0 km/h (0 Bft)
01.09.2010 01:50 12,4 C 89 % 1020,7 hPa 0,0 mm 0,0 km/h (0 Bft) W-NW 292 0 min 0 UV-I 0 W/m 1,6 km/h (1 Bft)
01.09.2010 02:00 12,2 C 90 % 1020,7 hPa 0,0 mm 0,0 km/h (0 Bft) W-NW 292 0 min 0 UV-I 0 W/m 1,6 km/h (1 Bft)
01.09.2010 02:10 12,1 C 90 % 1020,6 hPa 0,0 mm 0,0 km/h (0 Bft) N 0 0 min 0 UV-I 0 W/m 0,0 km/h (0 Bft)
01.09.2010 02:20 11,9 C 91 % 1020,5 hPa 0,0 mm 0,0 km/h (0 Bft) W-NW 292 0 min 0 UV-I 0 W/m 1,6 km/h (1 Bft)
01.09.2010 02:30 11,8 C 91 % 1020,4 hPa 0,0 mm 0,0 km/h (0 Bft) N 0 0 min 0 UV-I 0 W/m 0,0 km/h (0 Bft)
01.09.2010 02:40 11,8 C 91 % 1020,3 hPa 0,0 mm 0,0 km/h (0 Bft) N 0 0 min 0 UV-I 0 W/m 0,0 km/h (0 Bft)
01.09.2010 02:50 11,8 C 91 % 1020,2 hPa 0,0 mm 0,0 km/h (0 Bft) N 0 0 min 0 UV-I 0 W/m 0,0 km/h (0 Bft)
01.09.2010 03:00 11,8 C 91 % 1020,2 hPa 0,0 mm 0,0 km/h (0 Bft) W-NW 292 0 min 0 UV-I 0 W/m 1,6 km/h (1 Bft)
01.09.2010 03:10 11,8 C 92 % 1020,3 hPa 0,0 mm 0,0 km/h (0 Bft) W-NW 292 0 min 0 UV-I 0 W/m 3,2 km/h (1 Bft)
01.09.2010 03:20 11,8 C 92 % 1020,3 hPa 0,0 mm 0,0 km/h (0 Bft) W-NW 292 0 min 0 UV-I 0 W/m 3,2 km/h (1 Bft)
01.09.2010 03:30 11,8 C 92 % 1020,2 hPa 0,0 mm 0,0 km/h (0 Bft) W-NW 292 0 min 0 UV-I 0 W/m 3,2 km/h (1 Bft)
01.09.2010 03:40 11,7 C 92 % 1020,2 hPa 0,0 mm 0,0 km/h (0 Bft) W-NW 292 0 min 0 UV-I 0 W/m 3,2 km/h (1 Bft)
01.09.2010 03:50 11,6 C 92 % 1020,1 hPa 0,0 mm 0,0 km/h (0 Bft) W-NW 292 0 min 0 UV-I 0 W/m 1,6 km/h (1 Bft)
01.09.2010 04:00 11,5 C 92 % 1020,1 hPa 0,0 mm 0,0 km/h (0 Bft) W-NW 292 0 min 0 UV-I 0 W/m 4,8 km/h (1 Bft)
01.09.2010 04:10 11,5 C 92 % 1020,0 hPa 0,0 mm 0,0 km/h (0 Bft) W-NW 292 0 min 0 UV-I 0 W/m 1,6 km/h (1 Bft)
01.09.2010 04:20 11,4 C 92 % 1019,9 hPa 0,0 mm 0,0 km/h (0 Bft) W-NW 292 0 min 0 UV-I 0 W/m 1,6 km/h (1 Bft)
01.09.2010 04:30 11,4 C 92 % 1019,9 hPa 0,0 mm 0,0 km/h (0 Bft) W-NW 292 0 min 0 UV-I 0 W/m 1,6 km/h (1 Bft)
01.09.2010 04:40 11,4 C 92 % 1020,0 hPa 0,0 mm 0,0 km/h (0 Bft) W-NW 292 0 min 0 UV-I 0 W/m 4,8 km/h (1 Bft)
01.09.2010 04:50 11,4 C 92 % 1019,9 hPa 0,0 mm 0,0 km/h (0 Bft) W-NW 292 0 min 0 UV-I 0 W/m 4,8 km/h (1 Bft)
01.09.2010 05:00 11,4 C 92 % 1019,9 hPa 0,0 mm 0,0 km/h (0 Bft) W-NW 292 0 min 0 UV-I 0 W/m 1,6 km/h (1 Bft)
01.09.2010 05:10 11,4 C 92 % 1019,9 hPa 0,0 mm 0,0 km/h (0 Bft) W-NW 292 0 min 0 UV-I 0 W/m 3,2 km/h (1 Bft)
01.09.2010 05:20 11,4 C 92 % 1019,9 hPa 0,0 mm 0,0 km/h (0 Bft) W-NW 292 0 min 0 UV-I 0 W/m 3,2 km/h (1 Bft)
01.09.2010 05:30 11,4 C 92 % 1019,9 hPa 0,0 mm 0,0 km/h (0 Bft) W-NW 292 0 min 0 UV-I 0 W/m 1,6 km/h (1 Bft)
01.09.2010 05:40 11,3 C 92 % 1019,8 hPa 0,0 mm 1,6 km/h (1 Bft) W 270 0 min 0 UV-I 0 W/m 8,0 km/h (2 Bft)
01.09.2010 05:50 11,3 C 92 % 1019,8 hPa 0,0 mm 0,0 km/h (0 Bft) N 0 0 min 0 UV-I 0 W/m 0,0 km/h (0 Bft)
01.09.2010 06:00 11,3 C 92 % 1019,8 hPa 0,0 mm 0,0 km/h (0 Bft) W 270 0 min 0 UV-I 0 W/m 3,2 km/h (1 Bft)
01.09.2010 06:10 11,3 C 92 % 1019,8 hPa 0,0 mm 0,0 km/h (0 Bft) W 270 0 min 0 UV-I 0 W/m 3,2 km/h (1 Bft)
01.09.2010 06:20 11,4 C 92 % 1019,8 hPa 0,0 mm 0,0 km/h (0 Bft) W 270 0 min 0 UV-I 0 W/m 4,8 km/h (1 Bft)
01.09.2010 06:30 11,4 C 92 % 1019,8 hPa 0,0 mm 0,0 km/h (0 Bft) W 270 0 min 0 UV-I 0 W/m 3,2 km/h (1 Bft)
01.09.2010 06:40 11,4 C 91 % 1019,8 hPa 0,0 mm 0,0 km/h (0 Bft) W 270 0 min 0 UV-I 0 W/m 3,2 km/h (1 Bft)
01.09.2010 06:50 11,4 C 91 % 1019,8 hPa 0,0 mm 0,0 km/h (0 Bft) W 270 0 min 0 UV-I 0 W/m 1,6 km/h (1 Bft)
01.09.2010 07:00 11,4 C 91 % 1019,8 hPa 0,0 mm 0,0 km/h (0 Bft) W 270 0 min 0 UV-I 0 W/m 1,6 km/h (1 Bft)
01.09.2010 07:10 11,4 C 91 % 1019,8 hPa 0,0 mm 0,0 km/h (0 Bft) W 270 0 min 0 UV-I 0 W/m 3,2 km/h (1 Bft)
01.09.2010 07:20 11,5 C 91 % 1019,8 hPa 0,0 mm 0,0 km/h (0 Bft) W 270 0 min 0 UV-I 5 W/m 4,8 km/h (1 Bft)
01.09.2010 07:30 11,6 C 91 % 1019,8 hPa 0,0 mm 0,0 km/h (0 Bft) W 270 0 min 0 UV-I 7 W/m 3,2 km/h (1 Bft)
01.09.2010 07:40 11,6 C 91 % 1019,8 hPa 0,0 mm 0,0 km/h (0 Bft) W 270 0 min 0 UV-I 11 W/m 6,4 km/h (2 Bft)
01.09.2010 07:50 11,6 C 91 % 1019,8 hPa 0,0 mm 0,0 km/h (0 Bft) W 270 0 min 0 UV-I 12 W/m 4,8 km/h (1 Bft)
01.09.2010 08:00 11,6 C 91 % 1019,8 hPa 0,0 mm 0,2 km/h (0 Bft) W 281 0 min 0 UV-I 15 W/m 3,2 km/h (1 Bft)
01.09.2010 08:10 11,6 C 92 % 1019,8 hPa 0,0 mm 0,0 km/h (0 Bft) W 270 0 min 0 UV-I 23 W/m 4,8 km/h (1 Bft)
01.09.2010 08:20 11,6 C 92 % 1019,8 hPa 0,0 mm 1,6 km/h (1 Bft) W 270 0 min 0 UV-I 23 W/m 4,8 km/h (1 Bft)
01.09.2010 08:30 11,6 C 92 % 1019,8 hPa 0,0 mm 0,0 km/h (0 Bft) W 270 0 min 0 UV-I 25 W/m 4,8 km/h (1 Bft)
01.09.2010 08:40 11,7 C 92 % 1019,8 hPa 0,3 mm 0,0 km/h (0 Bft) W 270 0 min 0 UV-I 26 W/m 6,4 km/h (2 Bft)
01.09.2010 08:50 11,7 C 92 % 1019,9 hPa 0,0 mm 0,0 km/h (0 Bft) W 270 0 min 0 UV-I 26 W/m 4,8 km/h (1 Bft)
01.09.2010 09:00 11,8 C 92 % 1019,8 hPa 0,0 mm 1,6 km/h (1 Bft) W-NW 292 0 min 0 UV-I 44 W/m 8,0 km/h (2 Bft)
01.09.2010 09:10 11,8 C 93 % 1019,8 hPa 0,0 mm 1,6 km/h (1 Bft) W-NW 292 0 min 0 UV-I 44 W/m 6,4 km/h (2 Bft)
01.09.2010 09:20 11,9 C 93 % 1019,8 hPa 0,0 mm 1,6 km/h (1 Bft) W 270 0 min 0 UV-I 44 W/m 6,4 km/h (2 Bft)
01.09.2010 09:30 11,9 C 93 % 1019,8 hPa 0,0 mm 1,6 km/h (1 Bft) W-NW 292 0 min 1 UV-I 63 W/m 6,4 km/h (2 Bft)
01.09.2010 09:40 12,1 C 93 % 1019,9 hPa 0,0 mm 0,0 km/h (0 Bft) W-NW 292 0 min 1 UV-I 74 W/m 4,8 km/h (1 Bft)
01.09.2010 09:50 12,2 C 93 % 1019,9 hPa 0,0 mm 0,0 km/h (0 Bft) W 270 0 min 1 UV-I 72 W/m 4,8 km/h (1 Bft)
01.09.2010 10:00 12,3 C 93 % 1020,0 hPa 0,0 mm 0,0 km/h (0 Bft) W 270 0 min 1 UV-I 56 W/m 4,8 km/h (1 Bft)
01.09.2010 10:10 12,3 C 93 % 1020,1 hPa 0,0 mm 0,0 km/h (0 Bft) W 270 0 min 1 UV-I 77 W/m 4,8 km/h (1 Bft)
01.09.2010 10:20 12,5 C 93 % 1020,1 hPa 0,0 mm 0,0 km/h (0 Bft) W 270 0 min 1 UV-I 79 W/m 4,8 km/h (1 Bft)
01.09.2010 10:30 12,6 C 93 % 1020,2 hPa 0,0 mm 1,6 km/h (1 Bft) W 270 0 min 1 UV-I 88 W/m 6,4 km/h (2 Bft)
01.09.2010 10:40 12,7 C 93 % 1020,3 hPa 0,0 mm 1,6 km/h (1 Bft) W 270 0 min 1 UV-I 97 W/m 4,8 km/h (1 Bft)
01.09.2010 10:50 12,8 C 92 % 1020,3 hPa 0,0 mm 1,6 km/h (1 Bft) NW 315 0 min 1 UV-I 77 W/m 6,4 km/h (2 Bft)
01.09.2010 11:00 12,8 C 92 % 1020,3 hPa 0,0 mm 1,6 km/h (1 Bft) NW 315 0 min 1 UV-I 95 W/m 6,4 km/h (2 Bft)
01.09.2010 11:10 12,8 C 92 % 1020,3 hPa 0,0 mm 1,6 km/h (1 Bft) W-NW 292 0 min 1 UV-I 100 W/m 8,0 km/h (2 Bft)
01.09.2010 11:20 13,0 C 92 % 1020,3 hPa 0,0 mm 1,6 km/h (1 Bft) W 270 0 min 1 UV-I 111 W/m 8,0 km/h (2 Bft)
01.09.2010 11:30 13,2 C 92 % 1020,3 hPa 0,0 mm 1,6 km/h (1 Bft) SW 225 0 min 1 UV-I 127 W/m 6,4 km/h (2 Bft)
01.09.2010 11:40 13,2 C 91 % 1020,3 hPa 0,0 mm 1,6 km/h (1 Bft) SW 225 0 min 1 UV-I 98 W/m 8,0 km/h (2 Bft)
01.09.2010 11:50 13,3 C 92 % 1020,3 hPa 0,0 mm 1,6 km/h (1 Bft) W 270 0 min 2 UV-I 144 W/m 8,0 km/h (2 Bft)
01.09.2010 12:00 13,5 C 91 % 1020,2 hPa 0,0 mm 1,6 km/h (1 Bft) W 270 0 min 1 UV-I 130 W/m 9,7 km/h (2 Bft)
01.09.2010 12:10 13,6 C 90 % 1020,0 hPa 0,0 mm 3,2 km/h (1 Bft) SW 225 0 min 2 UV-I 221 W/m 6,4 km/h (2 Bft)
01.09.2010 12:20 13,9 C 89 % 1020,0 hPa 0,0 mm 1,6 km/h (1 Bft) SW 225 0 min 2 UV-I 220 W/m 8,0 km/h (2 Bft)
01.09.2010 12:30 14,1 C 89 % 1020,0 hPa 0,0 mm 1,6 km/h (1 Bft) W 270 0 min 2 UV-I 153 W/m 6,4 km/h (2 Bft)
01.09.2010 12:40 14,1 C 88 % 1019,9 hPa 0,0 mm 1,6 km/h (1 Bft) W 270 0 min 2 UV-I 227 W/m 9,7 km/h (2 Bft)
01.09.2010 12:50 14,4 C 86 % 1019,9 hPa 0,0 mm 1,6 km/h (1 Bft) S-SW 202 0 min 3 UV-I 241 W/m 8,0 km/h (2 Bft)
01.09.2010 13:00 14,6 C 86 % 1019,9 hPa 0,0 mm 3,2 km/h (1 Bft) W-SW 247 0 min 3 UV-I 311 W/m 9,7 km/h (2 Bft)
01.09.2010 13:10 14,8 C 84 % 1019,9 hPa 0,0 mm 4,8 km/h (1 Bft) W 270 0 min 3 UV-I 304 W/m 14,5 km/h (3 Bft)
01.09.2010 13:20 14,6 C 84 % 1020,0 hPa 0,0 mm 4,8 km/h (1 Bft) W 270 0 min 2 UV-I 141 W/m 11,3 km/h (2 Bft)
01.09.2010 13:30 14,5 C 84 % 1020,0 hPa 0,0 mm 3,2 km/h (1 Bft) W-SW 247 0 min 2 UV-I 220 W/m 9,7 km/h (2 Bft)
01.09.2010 13:40 14,8 C 84 % 1019,9 hPa 0,0 mm 3,2 km/h (1 Bft) SW 225 0 min 3 UV-I 290 W/m 9,7 km/h (2 Bft)
01.09.2010 13:50 15,1 C 82 % 1019,9 hPa 0,0 mm 4,8 km/h (1 Bft) W-SW 247 0 min 3 UV-I 295 W/m 12,9 km/h (3 Bft)
01.09.2010 14:00 15,1 C 82 % 1020,0 hPa 0,0 mm 4,8 km/h (1 Bft) W 270 0 min 3 UV-I 264 W/m 16,1 km/h (3 Bft)
01.09.2010 14:10 15,1 C 82 % 1019,9 hPa 0,0 mm 6,4 km/h (2 Bft) W-SW 247 0 min 3 UV-I 322 W/m 16,1 km/h (3 Bft)
01.09.2010 14:20 15,2 C 82 % 1019,9 hPa 0,0 mm 4,8 km/h (1 Bft) S-SW 202 0 min 3 UV-I 258 W/m 12,9 km/h (3 Bft)
01.09.2010 14:30 15,2 C 82 % 1019,9 hPa 0,0 mm 4,8 km/h (1 Bft) W-SW 247 0 min 2 UV-I 211 W/m 11,3 km/h (2 Bft)
01.09.2010 14:40 15,2 C 81 % 1019,8 hPa 0,0 mm 3,2 km/h (1 Bft) W-SW 247 0 min 2 UV-I 229 W/m 14,5 km/h (3 Bft)
01.09.2010 14:50 15,1 C 81 % 1019,7 hPa 0,0 mm 3,2 km/h (1 Bft) W-SW 247 0 min 2 UV-I 174 W/m 11,3 km/h (2 Bft)
01.09.2010 15:00 15,1 C 81 % 1019,7 hPa 0,0 mm 1,6 km/h (1 Bft) W 270 0 min 2 UV-I 183 W/m 9,7 km/h (2 Bft)
01.09.2010 15:10 15,4 C 78 % 1019,6 hPa 0,0 mm 3,2 km/h (1 Bft) W 270 0 min 2 UV-I 239 W/m 14,5 km/h (3 Bft)
01.09.2010 15:20 15,8 C 75 % 1019,5 hPa 0,0 mm 4,8 km/h (1 Bft) W 270 0 min 2 UV-I 248 W/m 14,5 km/h (3 Bft)
01.09.2010 15:30 15,9 C 74 % 1019,5 hPa 0,0 mm 3,2 km/h (1 Bft) W 270 0 min 2 UV-I 251 W/m 12,9 km/h (3 Bft)
01.09.2010 15:40 16,2 C 73 % 1019,4 hPa 0,0 mm 3,2 km/h (1 Bft) W 270 0 min 3 UV-I 323 W/m 16,1 km/h (3 Bft)
01.09.2010 15:50 16,3 C 72 % 1019,5 hPa 0,0 mm 4,8 km/h (1 Bft) W 270 0 min 2 UV-I 220 W/m 14,5 km/h (3 Bft)
01.09.2010 16:00 15,9 C 74 % 1019,4 hPa 0,0 mm 4,5 km/h (1 Bft) W-NW 292 0 min 1 UV-I 161 W/m 11,3 km/h (2 Bft)
01.09.2010 16:10 16,1 C 74 % 1019,4 hPa 0,0 mm 3,2 km/h (1 Bft) W-NW 292 0 min 2 UV-I 236 W/m 9,7 km/h (2 Bft)
01.09.2010 16:20 16,3 C 72 % 1019,2 hPa 0,0 mm 4,8 km/h (1 Bft) W 270 0 min 2 UV-I 227 W/m 11,3 km/h (2 Bft)
01.09.2010 16:30 16,6 C 72 % 1019,2 hPa 0,0 mm 1,6 km/h (1 Bft) W 270 10 min 2 UV-I 385 W/m 8,0 km/h (2 Bft)
01.09.2010 16:40 17,2 C 70 % 1019,1 hPa 0,0 mm 3,2 km/h (1 Bft) W 270 10 min 2 UV-I 452 W/m 17,7 km/h (3 Bft)
01.09.2010 16:50 17,4 C 72 % 1018,9 hPa 0,0 mm 3,2 km/h (1 Bft) W-NW 292 10 min 2 UV-I 584 W/m 9,7 km/h (2 Bft)
01.09.2010 17:00 17,6 C 70 % 1018,8 hPa 0,0 mm 3,2 km/h (1 Bft) W-NW 292 10 min 2 UV-I 547 W/m 11,3 km/h (2 Bft)
01.09.2010 17:10 17,3 C 68 % 1018,8 hPa 0,0 mm 4,8 km/h (1 Bft) W 270 10 min 2 UV-I 520 W/m 16,1 km/h (3 Bft)
01.09.2010 17:20 16,9 C 71 % 1018,8 hPa 0,0 mm 3,2 km/h (1 Bft) W 270 0 min 1 UV-I 100 W/m 9,7 km/h (2 Bft)
01.09.2010 17:30 16,4 C 74 % 1018,9 hPa 0,0 mm 3,2 km/h (1 Bft) W 270 0 min 0 UV-I 30 W/m 9,7 km/h (2 Bft)
01.09.2010 17:40 16,1 C 74 % 1019,0 hPa 0,0 mm 1,6 km/h (1 Bft) W 270 0 min 0 UV-I 12 W/m 6,4 km/h (2 Bft)
01.09.2010 17:50 15,8 C 75 % 1018,9 hPa 0,0 mm 0,0 km/h (0 Bft) W-NW 292 0 min 0 UV-I 23 W/m 3,2 km/h (1 Bft)
01.09.2010 18:00 15,6 C 75 % 1019,0 hPa 0,0 mm 1,6 km/h (1 Bft) NW 315 0 min 0 UV-I 23 W/m 6,4 km/h (2 Bft)
01.09.2010 18:10 15,4 C 76 % 1019,0 hPa 0,0 mm 1,6 km/h (1 Bft) NW 315 0 min 0 UV-I 30 W/m 4,8 km/h (1 Bft)
01.09.2010 18:20 15,4 C 76 % 1018,9 hPa 0,0 mm 1,6 km/h (1 Bft) W-NW 292 0 min 0 UV-I 33 W/m 4,8 km/h (1 Bft)
01.09.2010 18:30 15,4 C 76 % 1018,9 hPa 0,0 mm 1,6 km/h (1 Bft) W-NW 292 0 min 0 UV-I 23 W/m 8,0 km/h (2 Bft)
01.09.2010 18:40 15,3 C 78 % 1019,0 hPa 0,0 mm 0,0 km/h (0 Bft) NW 315 0 min 0 UV-I 18 W/m 6,4 km/h (2 Bft)
01.09.2010 18:50 15,2 C 78 % 1019,1 hPa 0,0 mm 0,0 km/h (0 Bft) NW 315 0 min 0 UV-I 16 W/m 4,8 km/h (1 Bft)
01.09.2010 19:00 15,1 C 78 % 1019,1 hPa 0,0 mm 0,0 km/h (0 Bft) NW 315 0 min 0 UV-I 16 W/m 3,2 km/h (1 Bft)
01.09.2010 19:10 15,1 C 80 % 1019,1 hPa 0,0 mm 0,0 km/h (0 Bft) NW 315 0 min 0 UV-I 9 W/m 1,6 km/h (1 Bft)
01.09.2010 19:20 15,0 C 81 % 1019,1 hPa 0,0 mm 0,0 km/h (0 Bft) N 0 0 min 0 UV-I 7 W/m 0,0 km/h (0 Bft)
01.09.2010 19:30 14,8 C 81 % 1019,1 hPa 0,0 mm 0,0 km/h (0 Bft) NW 315 0 min 0 UV-I 7 W/m 1,6 km/h (1 Bft)
01.09.2010 19:40 14,8 C 81 % 1019,0 hPa 0,0 mm 0,0 km/h (0 Bft) NW 315 0 min 0 UV-I 5 W/m 1,6 km/h (1 Bft)
01.09.2010 19:50 14,8 C 81 % 1019,1 hPa 0,0 mm 0,0 km/h (0 Bft) NW 315 0 min 0 UV-I 5 W/m 1,6 km/h (1 Bft)
01.09.2010 20:00 14,8 C 80 % 1019,0 hPa 0,0 mm 0,0 km/h (0 Bft) N 0 0 min 0 UV-I 0 W/m 0,0 km/h (0 Bft)
01.09.2010 20:10 14,8 C 80 % 1019,1 hPa 0,0 mm 0,0 km/h (0 Bft) N 0 0 min 0 UV-I 0 W/m 0,0 km/h (0 Bft)
01.09.2010 20:20 14,8 C 81 % 1019,2 hPa 0,0 mm 0,0 km/h (0 Bft) N 0 0 min 0 UV-I 0 W/m 0,0 km/h (0 Bft)
01.09.2010 20:30 14,7 C 81 % 1019,2 hPa 0,0 mm 0,0 km/h (0 Bft) N 0 0 min 0 UV-I 0 W/m 0,0 km/h (0 Bft)
01.09.2010 20:40 14,7 C 81 % 1019,3 hPa 0,0 mm 0,0 km/h (0 Bft) N 0 0 min 0 UV-I 0 W/m 0,0 km/h (0 Bft)
01.09.2010 20:50 14,7 C 81 % 1019,3 hPa 0,0 mm 0,0 km/h (0 Bft) N 0 0 min 0 UV-I 0 W/m 0,0 km/h (0 Bft)
01.09.2010 21:00 14,6 C 81 % 1019,4 hPa 0,0 mm 0,0 km/h (0 Bft) N 0 0 min 0 UV-I 0 W/m 0,0 km/h (0 Bft)
01.09.2010 21:10 14,5 C 81 % 1019,3 hPa 0,0 mm 0,0 km/h (0 Bft) N 0 0 min 0 UV-I 0 W/m 0,0 km/h (0 Bft)
01.09.2010 21:20 14,4 C 82 % 1019,2 hPa 0,0 mm 0,0 km/h (0 Bft) N 0 0 min 0 UV-I 0 W/m 0,0 km/h (0 Bft)
01.09.2010 21:30 14,3 C 82 % 1019,2 hPa 0,0 mm 0,0 km/h (0 Bft) N 0 0 min 0 UV-I 0 W/m 0,0 km/h (0 Bft)
01.09.2010 21:40 14,2 C 82 % 1019,2 hPa 0,0 mm 0,0 km/h (0 Bft) N 0 0 min 0 UV-I 0 W/m 0,0 km/h (0 Bft)
01.09.2010 21:50 14,1 C 82 % 1019,3 hPa 0,0 mm 0,0 km/h (0 Bft) N 0 0 min 0 UV-I 0 W/m 0,0 km/h (0 Bft)
01.09.2010 22:00 13,9 C 82 % 1019,2 hPa 0,0 mm 0,0 km/h (0 Bft) N 0 0 min 0 UV-I 0 W/m 0,0 km/h (0 Bft)
01.09.2010 22:10 13,8 C 83 % 1019,3 hPa 0,0 mm 0,0 km/h (0 Bft) N 0 0 min 0 UV-I 0 W/m 0,0 km/h (0 Bft)
01.09.2010 22:20 13,7 C 82 % 1019,3 hPa 0,0 mm 0,0 km/h (0 Bft) N 0 0 min 0 UV-I 0 W/m 0,0 km/h (0 Bft)
01.09.2010 22:30 13,4 C 83 % 1019,3 hPa 0,0 mm 0,0 km/h (0 Bft) N 0 0 min 0 UV-I 0 W/m 0,0 km/h (0 Bft)
01.09.2010 22:40 13,3 C 83 % 1019,3 hPa 0,0 mm 0,0 km/h (0 Bft) N 0 0 min 0 UV-I 0 W/m 0,0 km/h (0 Bft)
01.09.2010 22:50 13,2 C 83 % 1019,3 hPa 0,0 mm 0,0 km/h (0 Bft) N 0 0 min 0 UV-I 0 W/m 0,0 km/h (0 Bft)
01.09.2010 23:00 13,0 C 84 % 1019,2 hPa 0,0 mm 0,0 km/h (0 Bft) N 0 0 min 0 UV-I 0 W/m 0,0 km/h (0 Bft)
01.09.2010 23:10 12,9 C 84 % 1019,2 hPa 0,0 mm 0,0 km/h (0 Bft) N 0 0 min 0 UV-I 0 W/m 0,0 km/h (0 Bft)
01.09.2010 23:20 12,8 C 84 % 1019,3 hPa 0,0 mm 0,0 km/h (0 Bft) N 0 0 min 0 UV-I 0 W/m 0,0 km/h (0 Bft)
01.09.2010 23:30 12,8 C 84 % 1019,4 hPa 0,0 mm 0,0 km/h (0 Bft) N 0 0 min 0 UV-I 0 W/m 0,0 km/h (0 Bft)
01.09.2010 23:40 12,8 C 85 % 1019,4 hPa 0,0 mm 0,0 km/h (0 Bft) N 0 0 min 0 UV-I 0 W/m 0,0 km/h (0 Bft)
01.09.2010 23:50 12,8 C 85 % 1019,4 hPa 0,0 mm 0,0 km/h (0 Bft) N 0 0 min 0 UV-I 0 W/m 0,0 km/h (0 Bft)
_ Min-Zeit 04:30 17:10 17:00 - 00:00 - - - - - 00:30
Minimum _ 11,3 C 68 % 1018,8 hPa - 0,0 km/h (0 Bft) - - - - - 0,0 km/h (0 Bft)
_ Max-Zeit 17:00 09:10 00:00 08:40 14:10 - - 16:30 14:10 16:50 16:40
Maximum _ 17,8 C 93 % 1021,2 hPa 0,3 mm 6,4 km/h
W-SW (2 Bft)
- - 10 min 3 UV-I 584 W/m 17,7 km/h
W-NW (3 Bft)
Durchschnitt _ 13,5 C 86 % 1019,8 hPa #0,3 mm 1,0 km/h (0 Bft) W - #50 min. 2 UV-I 142 W/m 4,9 km/h (1 Bft)